Simultaneous Nadir Overpasses (SNOs) Predictions

Prediction of SNOs between LANDSAT-8 and METOP-B Satellite Orbit:

Table of predicted SNOs for the next 14.0 days since TLE Epoch: 2/5/2016
Index Date (LANDSAT-8) Time (LANDSAT-8) Lat,Lon (LANDSAT-8) SZA (LANDSAT-8 ) Date (METOP-B) Time (METOP-B) Lat,Lon (METOP-B) SZA (METOP-B ) Distance(km) Time Diff (sec)
1 02/07/2016 10:49:09 81.20, 58.69 98.33 02/07/2016 10:48:45 81.20, 58.82 98.33 2.32 24
2 02/07/2016 11:38:35 -81.22,-133.37 81.65 02/07/2016 11:39:24 -81.22,-133.21 81.61 2.81 49
3 02/10/2016 06:23:22 81.20, 125.09 97.43 02/10/2016 06:23:02 81.20, 125.19 97.43 1.71 20
4 02/10/2016 07:12:48 -81.22, -66.94 82.54 02/10/2016 07:13:41 -81.22, -66.83 82.51 1.93 53
5 02/13/2016 01:57:36 81.20,-168.57 96.49 02/13/2016 01:57:20 81.20,-168.47 96.50 1.74 16
6 02/13/2016 02:47:02 -81.22, -0.58 83.47 02/13/2016 02:47:59 -81.22, -0.48 83.44 1.69 57
7 02/15/2016 21:31:49 81.21,-101.92 95.58 02/15/2016 21:31:37 81.21,-101.78 95.58 2.35 12
8 02/15/2016 22:21:15 -81.23, 66.09 84.39 02/15/2016 22:22:16 -81.23, 66.22 84.35 2.19 61
9 02/18/2016 17:06:02 81.19, -35.71 94.57 02/18/2016 17:05:55 81.19, -35.89 94.55 3.07 7




NCC Satellite Simultaneous Nadir Overpasses (SNOs) Prediction Service
